Location: Peach Mountain Observatory
(42.3967°N, 83.9367°W)
Time: 04:28:07
(UTC-05:00)

Tiros 1 - All Passes

Search period start: 21 January 2020 00:00
Search period end: 31 January 2020 00:00
Orbit: 630 x 664 km, 48.4° (Epoch: 20 January)

Date Brightness Start Highest point End Pass type
(mag) Time Alt. Az. Time Alt. Az. Time Alt. Az.
21 Jan - 14:09:50 10° SW 14:14:16 44° SE 14:18:48 10° ENE daylight
21 Jan - 15:51:47 10° W 15:56:27 58° NNW 16:01:10 10° ENE daylight
21 Jan - 17:34:45 10° WNW 17:39:15 40° N 17:43:47 10° ENE daylight
21 Jan - 19:17:13 10° WNW 19:21:59 66° NNE 19:26:47 10° ESE visible
21 Jan - 20:59:40 10° WNW 21:04:04 36° SW 21:08:26 10° SSE visible
22 Jan - 12:55:11 10° S 12:58:32 20° SE 13:01:55 10° E daylight
22 Jan - 14:35:31 10° WSW 14:40:14 84° SSE 14:45:01 10° ENE daylight
22 Jan - 16:18:13 10° W 16:22:46 43° N 16:27:20 10° ENE daylight
22 Jan - 18:01:02 10° WNW 18:05:37 45° N 18:10:15 10° E visible
22 Jan - 19:43:18 10° WNW 19:48:06 75° SSW 19:52:54 10° SE visible
22 Jan - 21:26:37 10° W 21:29:45 17° SW 21:32:52 10° S visible
23 Jan - 13:19:52 10° SSW 13:24:15 41° SE 13:28:41 10° ENE daylight
23 Jan - 15:01:42 10° W 15:06:22 60° NNW 15:11:06 10° ENE daylight
23 Jan - 16:44:40 10° WNW 16:49:09 40° N 16:53:40 10° ENE daylight
23 Jan - 18:27:10 10° WNW 18:31:55 63° NNE 18:36:41 10° ESE visible
23 Jan - 20:09:34 10° WNW 20:14:02 39° SW 20:18:28 10° SSE visible
24 Jan - 12:05:24 10° S 12:08:32 18° SE 12:11:42 10° E daylight
24 Jan - 13:45:30 10° WSW 13:50:10 79° SSE 13:54:56 10° ENE daylight
24 Jan - 15:28:08 10° W 15:32:40 44° N 15:37:15 10° ENE daylight
24 Jan - 17:10:58 10° WNW 17:15:32 44° N 17:20:08 10° E daylight
24 Jan - 18:53:15 10° WNW 18:58:03 80° SSW 19:02:51 10° ESE visible
24 Jan - 20:36:24 10° W 20:39:44 19° SW 20:43:03 10° S visible
25 Jan - 12:29:56 10° SSW 12:34:14 38° SE 12:38:35 10° ENE daylight
25 Jan - 14:11:39 10° WSW 14:16:18 63° NNW 14:21:02 10° ENE daylight
25 Jan - 15:54:35 10° WNW 15:59:04 39° N 16:03:34 10° ENE daylight
25 Jan - 17:37:06 10° WNW 17:41:50 60° NNE 17:46:35 10° E daylight
25 Jan - 19:19:28 10° WNW 19:23:58 42° SW 19:28:29 10° SSE visible
26 Jan - 11:15:38 10° S 11:18:32 16° SE 11:21:27 10° E daylight
26 Jan - 12:55:28 10° SW 13:00:07 75° SSE 13:04:51 10° ENE daylight
26 Jan - 14:38:03 10° W 14:42:35 45° N 14:47:09 10° ENE daylight
26 Jan - 16:20:55 10° WNW 16:25:27 43° N 16:30:01 10° E daylight
26 Jan - 18:03:12 10° WNW 18:07:59 85° SSW 18:12:47 10° ESE visible
26 Jan - 19:46:12 10° W 19:49:43 20° SW 19:53:13 10° S visible
27 Jan - 11:40:00 10° SSW 11:44:12 35° SE 11:48:28 10° ENE daylight
27 Jan - 13:21:35 10° WSW 13:26:14 66° NNW 13:30:58 10° ENE daylight
27 Jan - 15:04:31 10° WNW 15:08:57 39° N 15:13:27 10° ENE daylight
27 Jan - 16:47:03 10° WNW 16:51:45 57° NNE 16:56:29 10° E daylight
27 Jan - 18:29:24 10° WNW 18:33:56 45° SW 18:38:30 10° SE visible
28 Jan - 10:25:54 10° SSE 10:28:32 15° SE 10:31:11 10° E daylight
28 Jan - 12:05:28 10° SW 12:10:05 70° SSE 12:14:47 10° ENE daylight
28 Jan - 13:47:59 10° W 13:52:29 46° NNW 13:57:05 10° ENE daylight
28 Jan - 15:30:51 10° WNW 15:35:21 42° N 15:39:54 10° E daylight
28 Jan - 17:13:08 10° WNW 17:17:55 89° SSW 17:22:43 10° ESE daylight
28 Jan - 18:56:03 10° W 18:59:42 22° SW 19:03:21 10° S visible
29 Jan - 10:50:04 10° SSW 10:54:11 32° SE 10:58:21 10° ENE daylight
29 Jan - 12:31:31 10° WSW 12:36:10 69° NNW 12:40:52 10° ENE daylight
29 Jan - 14:14:26 10° WNW 14:18:52 40° N 14:23:21 10° ENE daylight
29 Jan - 15:57:01 10° WNW 16:01:40 55° NNE 16:06:22 10° E daylight
29 Jan - 17:39:19 10° WNW 17:43:54 48° SW 17:48:30 10° SE daylight
30 Jan - 09:36:15 10° SSE 09:38:32 14° SE 09:40:51 10° ESE daylight
30 Jan - 11:15:27 10° SW 11:20:02 65° SSE 11:24:42 10° ENE daylight
30 Jan - 12:57:54 10° W 13:02:25 47° NNW 13:07:00 10° ENE daylight
30 Jan - 14:40:47 10° WNW 14:45:16 41° N 14:49:47 10° ENE daylight
30 Jan - 16:23:06 10° WNW 16:27:52 86° NE 16:32:38 10° ESE daylight
30 Jan - 18:05:53 10° W 18:09:40 24° SW 18:13:29 10° S daylight
